Regional Weather Roundup
Issued by NWS Midland/Odessa, TX

Home | Current Version | Previous Version | Text Only | Print | Product List | Glossary On
Versions: 1 2 3 4 5 6 7 8 9 10 11 12 13 14 15 16 17 18 19 20 21 22 23 24 25 26 27 28 29 30 31 32 33 34 35 36 37 38 39 40 41 42 43 44 45 46 47 48 49 50
000
ASUS44 KMAF 061401
RWRMAF
MIDLAND AREA WEATHER ROUNDUP
NATIONAL WEATHER SERVICE MIDLAND TX
800 AM CST TUE DEC 06 2016

...IN SOUTHWEST TEXAS AND SOUTHEAST NEW MEXICO...

CITY           SKY/WX    TMP DP  RH WIND       PRES   REMARKS
ALPINE         PTCLDY    48  30  49 W12       30.06S
ANDREWS        FAIR      32  20  62 N6        30.06R WCI  27
ARTESIA        CLOUDY    32  19  59 N8        30.08R WCI  25
BIG SPRING     CLOUDY    39  29  67 NW7       30.07R WCI  34
CARLSBAD       PTCLDY    34  21  59 N12       30.06R WCI  25
DRYDEN           N/A     51  38  60 W9        29.93R
FORT STOCKTON  CLEAR     41  30  65 N12       30.02R WCI  34
GUAD PASS      CLOUDY    35  26  69 NE23      30.02R WCI  23
HOBBS          CLEAR     32  16  51 N12       30.05R WCI  23
MARFA          CLOUDY    30  26  85 SE3       30.06R
MIDLAND AIRPK  CLEAR     37  25  60 N8        30.06R WCI  31
MIDLAND INTL   CLEAR     36  23  59 N10       30.04R WCI  28
ODESSA         CLEAR     36  21  54 N10       30.04R WCI  28
PECOS          CLEAR     40  26  57 N9        30.04R WCI  33
PRESIDIO       FAIR      40  37  87 CALM      30.01R
SEMINOLE       CLEAR     33  18  52 N8        30.06R WCI  27
SNYDER         CLOUDY    39  29  67 N15G25    30.02R WCI  30
WINK           CLEAR     37  20  50 NE21      30.02R WCI  26
$$
...OTHER STATIONS IN TEXAS...

CITY           SKY/WX    TMP DP  RH WIND       PRES   REMARKS
ABILENE        LGT RAIN  42  41  96 N16       29.97R FOG     WCI  34
AMARILLO       CLOUDY    26  13  57 N20       30.07R WCI  12
AUSTIN         CLEAR     47  45  93 CALM      29.85R
BROWNSVILLE    SUNNY     54  53  97 S3        29.94R
CORPUS CHRISTI PTCLDY    50  49  96 SW8       29.91R
DALLAS FTW     LGT RAIN  49  47  93 N14       29.90R FOG
DEL RIO        FOG       39  39 100 CALM      29.92R VSB 1
EL PASO        PTCLDY    45  30  55 S3        29.98R
HOUSTON INT    FOG       50  50 100 CALM      29.89R VSB 1/16
LUBBOCK        CLOUDY    34  14  43 N16       30.02R WCI  24
SAN ANGELO     CLEAR     43  34  70 NW8       29.99R WCI  38
SAN ANTONIO    CLEAR     49  46  90 W5        29.88R
WACO           FOG       45  45 100 W3        29.87R VSB 1/16
WICHITA FALLS  NOT AVBL
$$
...OTHER LOCATIONS IN NEW MEXICO...

CITY           SKY/WX    TMP DP  RH WIND       PRES   REMARKS
ALAMAGORDO     NOT AVBL
ALBUQUERQUE    CLOUDY    37  18  46 SE7       29.93R WCI  32
CANNON AFB     MOCLDY    26   6  42 NE18      30.04S WCI  13
CLOVIS         PTCLDY    27   7  43 NE15      30.04F WCI  15
HOLLOMAN AFB   CLEAR     40  22  49 SE14      29.99R WCI  32
ROSWELL        CLOUDY    32  14  47 N5        30.08R WCI  27
RUIDOSO        CLOUDY    27  18  69 SE8       30.01S WCI  18
SANTA FE       CLOUDY    29  14  53 CALM      29.92R
TRUTH OR CONSE PTCLDY    39  19  44 W3        29.95R
TUCUMCARI      MOCLDY    28   6  39 E12       30.08R WCI  18
$$




USA.gov is the U.S. government's official web portal to all federal, state and local government web resources and services.